Time,TemperatureF,DewpointF,PressureIn,WindDirection,WindDirectionDegrees,WindSpeedMPH,WindSpeedGustMPH,Humidity,HourlyPrecipIn,Conditions,Clouds,dailyrainin,SolarRadiationWatts/m^2,SoftwareType,DateUTC
2013-07-03 00:01:00,66.0,64.0,-100.00,SSE,166,3.0,5.0,92,0.00,,,0.00,0.000000,,2013-07-03 04:01:00,
2013-07-03 00:11:00,66.0,64.0,-100.00,SSE,166,3.0,5.0,92,0.00,,,0.00,0.000000,,2013-07-03 04:11:00,
2013-07-03 00:43:00,65.0,64.0,-100.00,SSW,203,1.0,4.0,95,0.00,,,0.00,0.000000,,2013-07-03 04:43:00,
2013-07-03 00:52:00,65.0,64.0,-100.00,SSW,203,1.0,4.0,95,0.00,,,0.00,0.000000,,2013-07-03 04:52:00,
2013-07-03 01:02:00,65.0,64.0,-100.00,SSW,203,1.0,4.0,95,0.00,,,0.00,0.000000,,2013-07-03 05:02:00,
2013-07-03 01:11:00,65.0,64.0,-100.00,SSW,203,1.0,4.0,95,0.00,,,0.00,0.000000,,2013-07-03 05:11:00,
2013-07-03 01:48:00,65.0,63.0,-100.00,SSE,150,1.0,4.0,92,0.00,,,0.00,0.000000,,2013-07-03 05:48:00,
2013-07-03 02:01:00,65.0,63.0,-100.00,SSE,150,1.0,4.0,92,0.00,,,0.00,0.000000,,2013-07-03 06:01:00,
2013-07-03 02:15:00,65.0,63.0,-100.00,SSE,150,1.0,4.0,92,0.00,,,0.00,0.000000,,2013-07-03 06:15:00,
2013-07-03 02:50:00,64.0,62.0,-100.00,SW,222,2.0,4.0,92,0.00,,,0.00,0.000000,,2013-07-03 06:50:00,
2013-07-03 02:58:00,64.0,62.0,-100.00,SW,222,2.0,4.0,92,0.00,,,0.00,0.000000,,2013-07-03 06:58:00,
2013-07-03 03:15:00,64.0,62.0,-100.00,SW,222,2.0,4.0,92,0.00,,,0.00,0.000000,,2013-07-03 07:15:00,
2013-07-03 03:48:00,64.0,63.0,-100.00,SE,137,2.0,4.0,95,0.00,,,0.00,0.000000,,2013-07-03 07:48:00,
2013-07-03 04:02:00,64.0,63.0,-100.00,SE,137,2.0,4.0,95,0.00,,,0.00,0.000000,,2013-07-03 08:02:00,
2013-07-03 04:10:00,64.0,63.0,-100.00,SE,137,2.0,4.0,95,0.00,,,0.00,0.000000,,2013-07-03 08:10:00,
2013-07-03 04:16:00,64.0,63.0,-100.00,SE,137,2.0,4.0,95,0.00,,,0.00,0.000000,,2013-07-03 08:16:00,
2013-07-03 04:47:00,63.0,61.0,-100.00,NE,53,1.0,3.0,94,0.00,,,0.00,0.000000,,2013-07-03 08:47:00,
2013-07-03 05:07:00,63.0,61.0,-100.00,NE,53,1.0,3.0,94,0.00,,,0.00,0.000000,,2013-07-03 09:07:00,
2013-07-03 05:16:00,63.0,61.0,-100.00,NE,53,1.0,3.0,94,0.00,,,0.00,0.000000,,2013-07-03 09:16:00,
2013-07-03 05:48:00,63.0,62.0,-100.00,NNE,18,2.0,4.0,96,0.00,,,0.00,0.000000,,2013-07-03 09:48:00,
2013-07-03 05:58:00,63.0,62.0,-100.00,NNE,18,2.0,4.0,96,0.00,,,0.00,0.000000,,2013-07-03 09:58:00,
2013-07-03 06:16:00,63.0,62.0,-100.00,NNE,18,2.0,4.0,96,0.00,,,0.00,0.000000,,2013-07-03 10:16:00,
2013-07-03 06:47:00,64.0,63.0,-100.00,NE,51,2.0,4.0,97,0.00,,,0.00,1.000000,,2013-07-03 10:47:00,
2013-07-03 06:56:00,64.0,63.0,-100.00,NE,51,2.0,4.0,97,0.00,,,0.00,1.000000,,2013-07-03 10:56:00,
2013-07-03 07:06:00,64.0,63.0,-100.00,NE,51,2.0,4.0,97,0.00,,,0.00,1.000000,,2013-07-03 11:06:00,
2013-07-03 07:16:00,64.0,63.0,-100.00,NE,51,2.0,4.0,97,0.00,,,0.00,1.000000,,2013-07-03 11:16:00,
2013-07-03 07:46:00,65.0,64.0,-100.00,SE,137,2.0,5.0,97,0.00,,,0.00,28.000000,,2013-07-03 11:46:00,
2013-07-03 07:59:00,65.0,64.0,-100.00,SE,137,2.0,5.0,97,0.00,,,0.00,28.000000,,2013-07-03 11:59:00,
2013-07-03 08:08:00,65.0,64.0,-100.00,SE,137,2.0,5.0,97,0.00,,,0.00,28.000000,,2013-07-03 12:08:00,
2013-07-03 08:16:00,65.0,64.0,-100.00,SE,137,2.0,5.0,97,0.00,,,0.00,28.000000,,2013-07-03 12:16:00,
2013-07-03 08:17:00,66.0,65.0,-100.00,SE,142,2.0,4.0,96,0.00,,,0.00,45.000000,,2013-07-03 12:17:00,
2013-07-03 08:59:00,66.0,65.0,-100.00,SE,142,2.0,4.0,96,0.00,,,0.00,45.000000,,2013-07-03 12:59:00,
2013-07-03 09:08:00,66.0,65.0,-100.00,SE,142,2.0,4.0,96,0.00,,,0.00,45.000000,,2013-07-03 13:08:00,
2013-07-03 09:49:00,67.0,65.0,-100.00,SSE,149,1.0,3.0,94,0.01,,,0.01,73.000000,,2013-07-03 13:49:00,
2013-07-03 09:55:00,67.0,65.0,-100.00,SSE,149,1.0,3.0,94,0.01,,,0.01,73.000000,,2013-07-03 13:55:00,
2013-07-03 10:15:00,67.0,65.0,-100.00,SSE,149,1.0,3.0,94,0.01,,,0.01,73.000000,,2013-07-03 14:15:00,
2013-07-03 10:55:00,69.0,67.0,-100.00,SSE,166,2.0,7.0,93,0.00,,,0.01,178.000000,,2013-07-03 14:55:00,
2013-07-03 11:06:00,69.0,67.0,-100.00,SSE,166,2.0,7.0,93,0.00,,,0.01,178.000000,,2013-07-03 15:06:00,
2013-07-03 11:15:00,69.0,67.0,-100.00,SSE,166,2.0,7.0,93,0.00,,,0.01,178.000000,,2013-07-03 15:15:00,
2013-07-03 11:17:00,70.0,67.0,-100.00,SSE,149,2.0,6.0,91,0.01,,,0.02,230.000000,,2013-07-03 15:17:00,
2013-07-03 11:57:00,70.0,67.0,-100.00,SSE,149,2.0,6.0,91,0.01,,,0.02,230.000000,,2013-07-03 15:57:00,
2013-07-03 12:07:00,70.0,67.0,-100.00,SSE,149,2.0,6.0,91,0.01,,,0.02,230.000000,,2013-07-03 16:07:00,
2013-07-03 12:47:00,74.0,69.0,-100.00,SSE,166,2.0,6.0,84,0.00,,,0.02,375.000000,,2013-07-03 16:47:00,
2013-07-03 13:00:00,74.0,69.0,-100.00,SSE,166,2.0,6.0,84,0.00,,,0.02,375.000000,,2013-07-03 17:00:00,
2013-07-03 13:08:00,74.0,69.0,-100.00,SSE,166,2.0,6.0,84,0.00,,,0.02,375.000000,,2013-07-03 17:08:00,
2013-07-03 13:16:00,74.0,69.0,-100.00,SSE,166,2.0,6.0,84,0.00,,,0.02,375.000000,,2013-07-03 17:16:00,
2013-07-03 13:50:00,71.0,67.0,-100.00,SSE,161,1.0,3.0,87,0.00,,,0.02,198.000000,,2013-07-03 17:50:00,
2013-07-03 13:56:00,71.0,67.0,-100.00,SSE,161,1.0,3.0,87,0.00,,,0.02,198.000000,,2013-07-03 17:56:00,
2013-07-03 14:07:00,71.0,67.0,-100.00,SSE,161,1.0,3.0,87,0.00,,,0.02,198.000000,,2013-07-03 18:07:00,
2013-07-03 14:16:00,71.0,67.0,-100.00,SSE,161,1.0,3.0,87,0.00,,,0.02,198.000000,,2013-07-03 18:16:00,
2013-07-03 14:47:00,71.0,68.0,-100.00,SE,128,2.0,3.0,89,0.00,,,0.02,158.000000,,2013-07-03 18:47:00,
2013-07-03 14:59:00,71.0,68.0,-100.00,SE,128,2.0,3.0,89,0.00,,,0.02,158.000000,,2013-07-03 18:59:00,
2013-07-03 15:04:00,71.0,68.0,-100.00,SE,128,2.0,3.0,89,0.00,,,0.02,158.000000,,2013-07-03 19:04:00,
2013-07-03 15:16:00,71.0,68.0,-100.00,SE,128,2.0,3.0,89,0.00,,,0.02,158.000000,,2013-07-03 19:16:00,
2013-07-03 15:49:00,70.0,68.0,-100.00,ESE,122,1.0,3.0,92,0.05,,,0.07,119.000000,,2013-07-03 19:49:00,
2013-07-03 15:58:00,70.0,68.0,-100.00,ESE,122,1.0,3.0,92,0.05,,,0.07,119.000000,,2013-07-03 19:58:00,
2013-07-03 16:05:00,70.0,68.0,-100.00,ESE,122,1.0,3.0,92,0.05,,,0.07,119.000000,,2013-07-03 20:05:00,
2013-07-03 16:14:00,70.0,68.0,-100.00,ESE,122,1.0,3.0,92,0.05,,,0.07,119.000000,,2013-07-03 20:14:00,
2013-07-03 16:47:00,70.0,68.0,-100.00,SE,131,2.0,4.0,95,0.08,,,0.15,150.000000,,2013-07-03 20:47:00,
2013-07-03 16:57:00,70.0,68.0,-100.00,SE,131,2.0,4.0,95,0.08,,,0.15,150.000000,,2013-07-03 20:57:00,
2013-07-03 17:06:00,70.0,68.0,-100.00,SE,131,2.0,4.0,95,0.08,,,0.15,150.000000,,2013-07-03 21:06:00,
2013-07-03 17:13:00,70.0,68.0,-100.00,SE,131,2.0,4.0,95,0.08,,,0.15,150.000000,,2013-07-03 21:13:00,
2013-07-03 17:45:00,67.0,65.0,-100.00,SSE,150,3.0,6.0,94,0.06,,,0.21,136.000000,,2013-07-03 21:45:00,
2013-07-03 17:55:00,67.0,65.0,-100.00,SSE,150,3.0,6.0,94,0.06,,,0.21,136.000000,,2013-07-03 21:55:00,
2013-07-03 18:06:00,67.0,65.0,-100.00,SSE,150,3.0,6.0,94,0.06,,,0.21,136.000000,,2013-07-03 22:06:00,
2013-07-03 18:15:00,67.0,65.0,-100.00,SSE,150,3.0,6.0,94,0.06,,,0.21,136.000000,,2013-07-03 22:15:00,
2013-07-03 18:47:00,65.0,64.0,-100.00,SE,128,2.0,4.0,95,0.01,,,0.22,97.000000,,2013-07-03 22:47:00,
2013-07-03 18:57:00,65.0,64.0,-100.00,SE,128,2.0,4.0,95,0.01,,,0.22,97.000000,,2013-07-03 22:57:00,
2013-07-03 19:06:00,65.0,64.0,-100.00,SE,128,2.0,4.0,95,0.01,,,0.22,97.000000,,2013-07-03 23:06:00,
2013-07-03 19:14:00,65.0,64.0,-100.00,SE,128,2.0,4.0,95,0.01,,,0.22,97.000000,,2013-07-03 23:14:00,
2013-07-03 19:46:00,65.0,64.0,-100.00,ESE,110,2.0,5.0,96,0.01,,,0.23,54.000000,,2013-07-03 23:46:00,
2013-07-03 19:56:00,65.0,64.0,-100.00,ESE,110,2.0,5.0,96,0.01,,,0.23,54.000000,,2013-07-03 23:56:00,
2013-07-03 20:16:00,65.0,64.0,-100.00,ESE,110,2.0,5.0,96,0.01,,,0.23,54.000000,,2013-07-04 00:16:00,
2013-07-03 20:50:00,65.0,64.0,-100.00,ESE,106,1.0,4.0,97,0.09,,,0.32,17.000000,,2013-07-04 00:50:00,
2013-07-03 21:05:00,65.0,64.0,-100.00,ESE,106,1.0,4.0,97,0.09,,,0.32,17.000000,,2013-07-04 01:05:00,
2013-07-03 21:16:00,65.0,64.0,-100.00,ESE,106,1.0,4.0,97,0.09,,,0.32,17.000000,,2013-07-04 01:16:00,
2013-07-03 21:47:00,65.0,64.0,-100.00,SE,131,2.0,3.0,98,0.02,,,0.34,1.000000,,2013-07-04 01:47:00,
2013-07-03 21:57:00,65.0,64.0,-100.00,SE,131,2.0,3.0,98,0.02,,,0.34,1.000000,,2013-07-04 01:57:00,
2013-07-03 22:08:00,65.0,64.0,-100.00,SE,131,2.0,3.0,98,0.02,,,0.34,1.000000,,2013-07-04 02:08:00,
2013-07-03 22:15:00,65.0,64.0,-100.00,SE,131,2.0,3.0,98,0.02,,,0.34,1.000000,,2013-07-04 02:15:00,
2013-07-03 22:49:00,65.0,64.0,-100.00,ESE,118,2.0,5.0,98,0.02,,,0.36,0.000000,,2013-07-04 02:49:00,
2013-07-03 23:05:00,65.0,64.0,-100.00,ESE,118,2.0,5.0,98,0.02,,,0.36,0.000000,,2013-07-04 03:05:00,
2013-07-03 23:15:00,65.0,64.0,-100.00,ESE,118,2.0,5.0,98,0.02,,,0.36,0.000000,,2013-07-04 03:15:00,
2013-07-03 23:46:00,65.0,65.0,-100.00,ESE,110,3.0,8.0,99,0.04,,,0.40,0.000000,,2013-07-04 03:46:00,